Regional Weather Roundup
Issued by NWS

Home | Current Version | Previous Version | Text Only | Print | Product List | Glossary On
Versions: 1 2 3 4 5 6 7 8 9 10 11 12 13 14 15 16 17 18 19 20 21 22 23 24 25 26 27 28 29 30 31 32 33 34 35 36 37 38 39 40 41 42 43 44 45 46 47 48 49 50
000
ASUS43 KTOP 171608
RWRKS

WEATHER ROUNDUP FOR KANSAS
NATIONAL WEATHER SERVICE GOODLAND KS
1100 AM CDT THU APR 17 2014

NOTE:  "FAIR" INDICATES FEW OR NO CLOUDS BELOW 12,000 FEET WITH NO
SIGNIFICANT WEATHER AND/OR OBSTRUCTIONS TO VISIBILITY.

KSZ001>006-013>018-027>032-041>047-171700-
NORTHWEST KANSAS

CITY           SKY/WX    TMP DP  RH WIND       PRES   REMARKS
GOODLAND       CLOUDY    34  30  85 SE7       30.27R
HAYS           CLOUDY    37  27  65 NE8       30.33R
HILL CITY      PTSUNNY   38  26  62 N5        30.33R
RUSSELL        CLOUDY    39  26  59 N10       30.31R WCI  32
$$

KSZ061>065-074>080-084>089-171700-
SOUTHWEST KANSAS

CITY           SKY/WX    TMP DP  RH WIND       PRES   REMARKS
DODGE CITY     LGT RAIN  34  30  85 N12       30.30R FOG     WCI  25
ELKHART          N/A     42  36  79 E7          N/A
GARDEN CITY    MIX PCPN  34  31  88 E9        30.29R FOG
GREAT BEND     CLOUDY    37  25  60 NE9       30.32R
LIBERAL        CLOUDY    39  34  81 NE10      30.29R WCI  32
PRATT          LGT RAIN  34  32  93 N12       30.31R WCI  25
$$

KSZ066>073-081>083-090>101-171700-
SOUTHEAST KANSAS

CITY           SKY/WX    TMP DP  RH WIND       PRES   REMARKS
CHANUTE        CLOUDY    46  34  62 MISG      30.29R
COFFEYVILLE    PTSUNNY   50  36  58 NE9       30.27R
HUTCHINSON     CLOUDY    37  30  75 NE6       30.31R
MEDICINE LODGE   N/A     41  30  65 NE12      30.30R
NEWTON         CLOUDY    36  27  69 NE12      30.33R WCI  27
PARSONS        CLOUDY    48  34  58 MISG      30.28R
WICHITA INTL   CLOUDY    41  29  62 N12       30.30R
WICHITA JABRA  CLOUDY    39  29  67 N13       30.29R WCI  31
WICHITA MCCONL CLOUDY    41  31  68 NE14      30.30R
WINFIELD       CLOUDY    47  33  58 N13       30.28R
$$

KSZ007>012-019>026-033>040-048>060-102>105-171700-
NORTHEAST KANSAS

CITY           SKY/WX    TMP DP  RH WIND       PRES   REMARKS
CONCORDIA      PTSUNNY   39  27  62 NE10      30.33R WCI  32
EMPORIA        LGT RAIN  39  29  67 N13       30.30R WCI  31
LAWRENCE       CLOUDY    42  30  62 N9        30.31R
MANHATTAN      CLOUDY    41  29  62 N9        30.33R
OLATHE IND     CLOUDY    40  31  70 N10       30.31R WCI  33
OLATHE EXE     CLOUDY    40  30  67 N8        30.29R
SALINA         CLOUDY    41  27  57 N10       30.33S
TOPEKA BILLARD CLOUDY    41  30  65 N12       30.33R
TOPEKA FORBES  CLOUDY    40  29  64 VRB7      30.32R
$$



USA.gov is the U.S. government's official web portal to all federal, state and local government web resources and services.